VK3CSJ Weather Reports


Display with metric or nautical units.
time (UTC)temp
F
wind
direction
speed
MPH
gust
MPH
rain 1hr
in
rain 24hr
in
rain mn
in
humidity
%
barometer
mb
20260510033039 62 102 1.0 4.0 0.00 0.00 0.00 65 1031.6
20260510031536 62 118 0.0 4.0 0.00 0.00 0.00 65 1031.5
20260510030011 61 138 0.0 4.0 0.00 0.00 0.00 67 1031.7
20260510024556 61 263 0.0 3.0 0.00 0.00 0.00 68 1031.8
20260510023030 60 317 0.0 4.0 0.00 0.00 0.00 69 1032.1
20260510021516 60 309 0.0 6.0 0.00 0.00 0.00 70 1032.3
20260510020006 60 182 2.0 6.0 0.00 0.00 0.00 69 1032.5
20260510014554 60 27 0.0 3.0 0.00 0.00 0.00 70 1032.6
20260510013053 60 269 0.0 3.0 0.00 0.00 0.00 70 1032.8
20260510011555 59 57 0.0 1.0 0.00 0.00 0.00 72 1032.8
20260510010035 59 79 0.0 3.0 0.00 0.00 0.00 71 1032.8
20260510004515 58 184 0.0 4.0 0.00 0.00 0.00 74 1032.8
20260510003057 58 157 0.0 3.0 0.00 0.00 0.00 76 1032.8
20260510001541 57 192 1.0 5.0 0.00 0.00 0.00 80 1032.7
20260510000018 57 254 0.0 2.0 0.00 0.00 0.00 83 1032.7
20260509234503 56 206 1.0 7.0 0.00 0.00 0.00 91 1032.7
20260509233049 55 301 0.0 0.0 0.00 0.00 0.00 94 1032.6
20260509231542 55 300 0.0 1.0 0.00 0.00 0.00 94 1032.5
20260509230019 55 300 0.0 0.0 0.00 0.00 0.00 95 1032.6
20260509224501 54 300 0.0 1.0 0.00 0.00 0.00 95 1032.5
20260509223045 54 300 0.0 1.0 0.00 0.00 0.00 96 1032.3
20260509221537 54 300 0.0 0.0 0.00 0.00 0.00 95 1032.2
20260509220019 53 300 1.0 4.0 0.00 0.00 0.00 96 1032.0
20260509214504 53 336 1.0 3.0 0.00 0.00 0.00 95 1031.8
20260509213050 53 269 0.0 0.0 0.00 0.00 0.00 95 1031.6
20260509211548 53 269 0.0 0.0 0.00 0.00 0.00 95 1031.4
20260509210027 53 269 0.0 0.0 0.00 0.00 0.00 95 1031.3
20260509204519 53 269 0.0 0.0 0.00 0.00 0.00 95 1031.1
20260509203021 53 269 0.0 0.0 0.00 0.00 0.00 95 1031.0
20260509201622 53 269 0.0 0.0 0.00 0.00 0.00 95 1031.0
20260509201501 53 269 0.0 0.0 0.00 0.00 0.00 95 1031.0
20260509200056 53 269 0.0 1.0 0.00 0.00 0.00 95 1030.9
20260509194540 53 269 0.0 0.0 0.00 0.00 0.00 95 1030.8
20260509193032 53 269 0.0 2.0 0.00 0.00 0.00 95 1030.7
20260509191530 54 269 0.0 2.0 0.00 0.00 0.00 95 1030.5
20260509190020 54 269 0.0 0.0 0.00 0.00 0.00 95 1030.4
20260509184511 54 269 0.0 1.0 0.00 0.00 0.00 95 1030.2
20260509183003 54 269 0.0 0.0 0.00 0.00 0.00 95 1030.0
20260509181514 54 269 0.0 0.0 0.00 0.00 0.00 95 1029.9
20260509180004 54 269 0.0 0.0 0.00 0.00 0.00 95 1029.8
20260509174531 53 269 0.0 2.0 0.00 0.00 0.00 95 1029.9
20260509173030 53 269 0.0 1.0 0.00 0.00 0.00 94 1029.8
20260509171519 53 269 0.0 1.0 0.00 0.00 0.00 94 1029.9
20260509170012 53 269 0.0 1.0 0.00 0.00 0.00 94 1029.9
20260509164512 53 269 0.0 0.0 0.00 0.00 0.00 93 1030.1
20260509163002 54 269 0.0 0.0 0.00 0.00 0.00 93 1029.9
20260509161554 54 269 0.0 0.0 0.00 0.00 0.00 93 1030.1
20260509160040 54 269 0.0 0.0 0.00 0.00 0.00 93 1030.1
20260509154524 55 269 0.0 0.0 0.00 0.00 0.00 93 1030.1
20260509153018 55 269 0.0 0.0 0.00 0.00 0.00 93 1030.1
20260509151515 55 269 0.0 0.0 0.00 0.00 0.00 93 1030.1
20260509150004 55 269 0.0 1.0 0.00 0.00 0.00 93 1030.2
20260509144506 55 269 0.0 2.0 0.00 0.00 0.00 93 1030.2
20260509143054 55 298 0.0 2.0 0.00 0.00 0.00 92 1030.2
20260509141554 55 267 1.0 3.0 0.00 0.00 0.00 92 1030.2
20260509140013 55 276 1.0 3.0 0.00 0.00 0.00 92 1030.2
20260509134556 55 281 0.0 1.0 0.00 0.00 0.00 92 1030.2
20260509133049 55 281 0.0 1.0 0.00 0.00 0.00 92 1030.3
20260509131509 55 243 0.0 0.0 0.00 0.00 0.00 91 1030.4
20260509130013 55 243 0.0 3.0 0.00 0.00 0.00 91 1030.3
20260509124505 55 223 0.0 0.0 0.00 0.00 0.00 91 1030.4
20260509123057 55 223 0.0 1.0 0.00 0.00 0.00 91 1030.4
20260509121551 55 223 0.0 2.0 0.00 0.00 0.00 92 1030.4
20260509120048 54 223 0.0 1.0 0.00 0.00 0.00 92 1030.4
20260509114541 54 182 0.0 3.0 0.00 0.00 0.00 92 1030.3
20260509113040 54 276 0.0 0.0 0.00 0.00 0.00 91 1030.2
20260509111515 54 276 0.0 0.0 0.00 0.00 0.00 91 1030.1
20260509110017 53 276 0.0 1.0 0.00 0.00 0.00 91 1030.1
20260509104507 54 276 0.0 1.0 0.00 0.00 0.00 91 1029.9
20260509103104 54 276 1.0 3.0 0.00 0.00 0.00 90 1029.9
20260509101555 54 223 0.0 2.0 0.00 0.00 0.00 90 1030.0
20260509100053 55 223 0.0 1.0 0.00 0.00 0.00 89 1030.0
20260509094553 55 227 0.0 3.0 0.00 0.00 0.00 89 1029.8
20260509093047 56 229 2.0 4.0 0.00 0.00 0.00 88 1029.9
20260509091538 57 235 0.0 4.0 0.00 0.00 0.00 87 1029.7
20260509090029 57 230 1.0 4.0 0.00 0.00 0.00 87 1029.7
20260509084530 58 213 0.0 3.0 0.00 0.00 0.00 88 1029.4
20260509083028 58 246 2.0 5.0 0.00 0.00 0.00 88 1029.4
20260509081522 58 229 0.0 6.0 0.00 0.00 0.00 88 1029.2
20260509080029 58 239 1.0 3.0 0.00 0.00 0.00 87 1029.1
20260509074517 58 231 1.0 6.0 0.00 0.00 0.00 87 1028.8
20260509073039 58 259 1.0 7.0 0.00 0.00 0.00 87 1028.5
20260509071532 59 254 2.0 7.0 0.00 0.00 0.00 87 1028.4
20260509064551 59 273 4.0 9.0 0.00 0.00 0.00 85 1028.3
20260509063042 59 244 3.0 9.0 0.00 0.00 0.00 85 1028.2
20260509061551 59 242 4.0 11.0 0.00 0.00 0.00 85 1028.2
20260509060033 59 222 3.0 8.0 0.00 0.00 0.00 85 1028.1
20260509054556 59 238 2.0 10.0 0.00 0.00 0.00 84 1028.1
20260509053053 60 242 3.0 8.0 0.00 0.00 0.00 84 1028.1
20260509051548 60 254 2.0 9.0 0.00 0.00 0.00 84 1028.0
20260509050055 60 260 4.0 9.0 0.00 0.00 0.00 83 1028.0
20260509044553 61 264 6.0 12.0 0.00 0.00 0.00 82 1028.0
20260509043035 61 277 4.0 12.0 0.00 0.00 0.00 82 1028.0
20260509041520 61 267 2.0 8.0 0.00 0.00 0.00 82 1028.1
20260509040016 61 261 3.0 8.0 0.00 0.00 0.00 80 1028.1
20260509034513 61 277 0.0 5.0 0.00 0.00 0.00 80 1028.1